| time (UTC) | temp F | wind direction | speed MPH | gust MPH | rain 1hr in | rain 24hr in | rain mn in | humidity % | barometer mb |
| 20260507060209 | 43 | 11 | 3.0 | 8.0 | 0.00 | 0.33 | 0.00 | 66 | 1014.5 |
| 20260507055209 | 43 | 12 | 4.0 | 7.0 | 0.00 | 0.34 | 0.00 | 68 | 1014.4 |
| 20260507053208 | 43 | 9 | 4.0 | 9.0 | 0.00 | 0.35 | 0.00 | 64 | 1014.5 |
| 20260507052208 | 43 | 12 | 3.0 | 8.0 | 0.00 | 0.35 | 0.00 | 64 | 1014.5 |
| 20260507050208 | 43 | 9 | 4.0 | 9.0 | 0.00 | 0.36 | 0.00 | 63 | 1014.2 |
| 20260507045208 | 43 | 15 | 4.0 | 8.0 | 0.00 | 0.36 | 0.00 | 62 | 1014.6 |
| 20260507044208 | 43 | 10 | 4.0 | 8.0 | 0.00 | 0.37 | 0.00 | 62 | 1014.4 |
| 20260507043208 | 43 | 21 | 4.0 | 10.0 | 0.00 | 0.38 | 0.00 | 63 | 1014.5 |
| 20260507042208 | 43 | 8 | 4.0 | 9.0 | 0.00 | 0.38 | 0.00 | 62 | 1014.5 |
| 20260507041208 | 43 | 13 | 4.0 | 9.0 | 0.00 | 0.39 | 0.00 | 62 | 1014.3 |
| 20260507035208 | 44 | 12 | 4.0 | 9.0 | 0.00 | 0.40 | 0.40 | 64 | 1014.2 |
| 20260507034208 | 44 | 15 | 4.0 | 10.0 | 0.00 | 0.41 | 0.40 | 64 | 1014.0 |
| 20260507033208 | 44 | 10 | 3.0 | 7.0 | 0.00 | 0.42 | 0.40 | 69 | 1014.0 |
| 20260507032208 | 44 | 6 | 3.0 | 10.0 | 0.00 | 0.42 | 0.40 | 75 | 1014.2 |
| 20260507031208 | 44 | 6 | 3.0 | 8.0 | 0.00 | 0.42 | 0.40 | 75 | 1014.0 |
| 20260507030208 | 44 | 7 | 3.0 | 7.0 | 0.00 | 0.43 | 0.40 | 74 | 1014.2 |
| 20260507025208 | 43 | 5 | 3.0 | 7.0 | 0.00 | 0.43 | 0.40 | 82 | 1014.2 |
| 20260507024208 | 43 | 4 | 2.0 | 8.0 | 0.00 | 0.43 | 0.40 | 87 | 1014.2 |
| 20260507023208 | 43 | 3 | 3.0 | 8.0 | 0.00 | 0.45 | 0.40 | 87 | 1014.4 |
| 20260507022208 | 44 | 4 | 3.0 | 8.0 | 0.00 | 0.47 | 0.40 | 87 | 1014.1 |
| 20260507021208 | 44 | 2 | 3.0 | 9.0 | 0.00 | 0.48 | 0.40 | 86 | 1014.1 |
| 20260507020208 | 44 | 6 | 2.0 | 8.0 | 0.00 | 0.49 | 0.40 | 85 | 1014.0 |
| 20260507015208 | 44 | 6 | 3.0 | 8.0 | 0.00 | 0.50 | 0.40 | 85 | 1014.1 |
| 20260507013208 | 44 | 14 | 1.0 | 6.0 | 0.00 | 0.51 | 0.40 | 87 | 1014.0 |
| 20260507012208 | 45 | 349 | 1.0 | 4.0 | 0.00 | 0.51 | 0.40 | 87 | 1014.2 |
| 20260507011208 | 45 | 9 | 1.0 | 4.0 | 0.00 | 0.51 | 0.40 | 85 | 1014.0 |
| 20260507010208 | 45 | 5 | 1.0 | 4.0 | 0.00 | 0.51 | 0.40 | 86 | 1014.0 |
| 20260507005209 | 44 | 351 | 0.0 | 3.0 | 0.00 | 0.51 | 0.40 | 87 | 1013.9 |
| 20260507004208 | 44 | 310 | 0.0 | 2.0 | 0.00 | 0.52 | 0.40 | 88 | 1013.8 |
| 20260507003208 | 44 | 330 | 1.0 | 6.0 | 0.00 | 0.52 | 0.40 | 86 | 1013.8 |
| 20260507002208 | 44 | 349 | 1.0 | 4.0 | 0.00 | 0.52 | 0.40 | 87 | 1013.6 |
| 20260506235208 | 44 | 6 | 2.0 | 6.0 | 0.00 | 0.54 | 0.40 | 84 | 1013.6 |
| 20260506233208 | 44 | 350 | 1.0 | 3.0 | 0.00 | 0.56 | 0.40 | 85 | 1013.4 |
| 20260506231210 | 44 | 333 | 1.0 | 3.0 | 0.00 | 0.57 | 0.40 | 87 | 1013.2 |
| 20260506230208 | 44 | 357 | 0.0 | 2.0 | 0.00 | 0.57 | 0.40 | 86 | 1013.0 |
| 20260506224208 | 44 | 8 | 1.0 | 4.0 | 0.00 | 0.58 | 0.40 | 87 | 1013.0 |
| 20260506223207 | 44 | 6 | 0.0 | 2.0 | 0.00 | 0.59 | 0.40 | 85 | 1012.9 |
| 20260506222208 | 44 | 298 | 0.0 | 1.0 | 0.00 | 0.60 | 0.40 | 86 | 1012.8 |
| 20260506221209 | 44 | 282 | 0.0 | 2.0 | 0.00 | 0.60 | 0.40 | 85 | 1012.7 |
| 20260506220209 | 45 | 321 | 0.0 | 2.0 | 0.00 | 0.61 | 0.40 | 86 | 1012.6 |
| 20260506215208 | 44 | 291 | 0.0 | 2.0 | 0.00 | 0.61 | 0.40 | 87 | 1012.7 |
| 20260506214208 | 45 | 276 | 0.0 | 2.0 | 0.00 | 0.61 | 0.40 | 86 | 1012.8 |
| 20260506213208 | 45 | 275 | 0.0 | 3.0 | 0.00 | 0.61 | 0.40 | 85 | 1012.6 |
| 20260506212209 | 45 | 289 | 1.0 | 3.0 | 0.00 | 0.61 | 0.40 | 83 | 1012.8 |
| 20260506205210 | 46 | 312 | 0.0 | 2.0 | 0.00 | 0.61 | 0.40 | 82 | 1012.4 |
| 20260506204208 | 46 | 302 | 0.0 | 2.0 | 0.00 | 0.61 | 0.40 | 83 | 1012.4 |
| 20260506203209 | 46 | 312 | 0.0 | 3.0 | 0.00 | 0.61 | 0.40 | 82 | 1012.5 |
| 20260506200209 | 47 | 306 | 0.0 | 3.0 | 0.00 | 0.61 | 0.40 | 81 | 1012.7 |
| 20260506194208 | 47 | 283 | 0.0 | 2.0 | 0.00 | 0.61 | 0.40 | 78 | 1012.5 |
| 20260506193209 | 47 | 298 | 0.0 | 2.0 | 0.00 | 0.61 | 0.40 | 80 | 1012.5 |
| 20260506192209 | 47 | 285 | 0.0 | 2.0 | 0.00 | 0.61 | 0.40 | 82 | 1012.6 |
| 20260506191208 | 46 | 291 | 1.0 | 3.0 | 0.00 | 0.61 | 0.40 | 83 | 1012.5 |
| 20260506190209 | 47 | 271 | 1.0 | 4.0 | 0.00 | 0.61 | 0.40 | 80 | 1012.5 |
| 20260506185208 | 47 | 277 | 1.0 | 3.0 | 0.00 | 0.61 | 0.40 | 81 | 1012.2 |
| 20260506183209 | 47 | 271 | 1.0 | 6.0 | 0.00 | 0.61 | 0.40 | 83 | 1012.6 |
| 20260506182209 | 47 | 298 | 0.0 | 3.0 | 0.00 | 0.61 | 0.40 | 83 | 1012.8 |
| 20260506181208 | 46 | 22 | 1.0 | 2.0 | 0.00 | 0.61 | 0.40 | 76 | 1012.6 |
| 20260506180208 | 46 | 23 | 1.0 | 2.0 | 0.00 | 0.61 | 0.40 | 79 | 1012.6 |
| 20260506173208 | 46 | 29 | 2.0 | 3.0 | 0.00 | 0.61 | 0.40 | 79 | 1012.5 |
| 20260506172208 | 46 | 25 | 1.0 | 3.0 | 0.00 | 0.61 | 0.40 | 81 | 1012.4 |
| 20260506171208 | 46 | 19 | 1.0 | 2.0 | 0.00 | 0.61 | 0.40 | 81 | 1012.5 |
| 20260506170208 | 46 | 24 | 1.0 | 2.0 | 0.00 | 0.61 | 0.40 | 80 | 1012.5 |
| 20260506165208 | 46 | 63 | 1.0 | 4.0 | 0.00 | 0.61 | 0.40 | 81 | 1012.5 |
| 20260506164208 | 46 | 30 | 0.0 | 3.0 | 0.00 | 0.61 | 0.40 | 82 | 1012.3 |
| 20260506163208 | 46 | 35 | 1.0 | 3.0 | 0.00 | 0.61 | 0.40 | 84 | 1012.4 |
| 20260506162208 | 46 | 145 | 1.0 | 3.0 | 0.00 | 0.61 | 0.40 | 83 | 1012.4 |
| 20260506161208 | 47 | 44 | 0.0 | 3.0 | 0.00 | 0.61 | 0.40 | 81 | 1012.3 |
| 20260506160208 | 45 | 81 | 1.0 | 3.0 | 0.00 | 0.61 | 0.40 | 85 | 1012.1 |
| 20260506155208 | 45 | 124 | 0.0 | 3.0 | 0.00 | 0.61 | 0.40 | 84 | 1012.4 |
| 20260506154208 | 45 | 147 | 0.0 | 3.0 | 0.00 | 0.61 | 0.40 | 86 | 1012.3 |
| 20260506153208 | 44 | 117 | 1.0 | 3.0 | 0.00 | 0.61 | 0.40 | 87 | 1012.4 |
| 20260506152208 | 45 | 68 | 1.0 | 4.0 | 0.00 | 0.61 | 0.40 | 86 | 1012.4 |
| 20260506151208 | 45 | 98 | 0.0 | 3.0 | 0.00 | 0.61 | 0.40 | 89 | 1012.5 |
| 20260506150208 | 44 | 137 | 0.0 | 2.0 | 0.00 | 0.61 | 0.40 | 89 | 1012.5 |
| 20260506145208 | 44 | 118 | 0.0 | 2.0 | 0.00 | 0.61 | 0.40 | 90 | 1012.6 |
| 20260506144208 | 44 | 150 | 0.0 | 4.0 | 0.00 | 0.61 | 0.40 | 90 | 1012.5 |
| 20260506143208 | 44 | 122 | 0.0 | 2.0 | 0.00 | 0.61 | 0.40 | 92 | 1012.3 |
| 20260506142208 | 44 | 111 | 0.0 | 2.0 | 0.00 | 0.61 | 0.40 | 92 | 1012.4 |
| 20260506140208 | 44 | 162 | 0.0 | 2.0 | 0.01 | 0.61 | 0.40 | 93 | 1012.2 |
| 20260506135208 | 44 | 156 | 1.0 | 2.0 | 0.01 | 0.61 | 0.40 | 92 | 1012.1 |
| 20260506134208 | 43 | 127 | 0.0 | 2.0 | 0.02 | 0.61 | 0.40 | 95 | 1012.2 |
| 20260506133208 | 43 | 119 | 0.0 | 1.0 | 0.03 | 0.61 | 0.40 | 95 | 1012.0 |
| 20260506132208 | 43 | 113 | 0.0 | 1.0 | 0.03 | 0.61 | 0.40 | 96 | 1012.0 |
| 20260506122208 | 42 | 0 | 0.0 | 0.0 | 0.04 | 0.58 | 0.37 | 97 | 1012.1 |
| 20260506120208 | 42 | 113 | 0.0 | 1.0 | 0.02 | 0.56 | 0.35 | 97 | 1012.0 |
| 20260506115209 | 42 | 76 | 0.0 | 2.0 | 0.01 | 0.55 | 0.34 | 97 | 1012.3 |
| 20260506114210 | 42 | 71 | 0.0 | 1.0 | 0.02 | 0.55 | 0.34 | 97 | 1012.1 |
| 20260506113208 | 42 | 113 | 0.0 | 1.0 | 0.02 | 0.55 | 0.34 | 97 | 1012.0 |
| 20260506112208 | 42 | 188 | 0.0 | 1.0 | 0.02 | 0.54 | 0.33 | 97 | 1012.1 |
| 20260506110208 | 42 | 192 | 0.0 | 2.0 | 0.03 | 0.54 | 0.33 | 97 | 1011.6 |
| 20260506105208 | 42 | 190 | 0.0 | 1.0 | 0.04 | 0.54 | 0.33 | 97 | 1011.9 |
| 20260506103208 | 42 | 0 | 0.0 | 0.0 | 0.06 | 0.53 | 0.32 | 97 | 1011.9 |
| 20260506102208 | 42 | 0 | 0.0 | 0.0 | 0.06 | 0.52 | 0.31 | 97 | 1011.9 |
| 20260506095208 | 42 | 0 | 0.0 | 0.0 | 0.06 | 0.50 | 0.29 | 97 | 1012.0 |
| 20260506093208 | 42 | 0 | 0.0 | 0.0 | 0.05 | 0.47 | 0.26 | 97 | 1012.5 |
| 20260506092208 | 42 | 190 | 0.0 | 1.0 | 0.05 | 0.46 | 0.25 | 97 | 1012.3 |
| 20260506090208 | 42 | 0 | 0.0 | 0.0 | 0.09 | 0.45 | 0.24 | 97 | 1011.9 |
| 20260506085210 | 42 | 189 | 0.0 | 1.0 | 0.09 | 0.44 | 0.23 | 97 | 1011.8 |
| 20260506083208 | 42 | 0 | 0.0 | 0.0 | 0.11 | 0.42 | 0.21 | 96 | 1012.2 |
| 20260506082208 | 42 | 0 | 0.0 | 0.0 | 0.10 | 0.41 | 0.20 | 96 | 1012.3 |
| 20260506080208 | 42 | 0 | 0.0 | 0.0 | 0.07 | 0.38 | 0.15 | 96 | 1012.2 |
| 20260506072208 | 43 | 200 | 1.0 | 2.0 | 0.03 | 0.37 | 0.10 | 96 | 1012.3 |
| 20260506070208 | 43 | 202 | 2.0 | 3.0 | 0.01 | 0.35 | 0.08 | 96 | 1012.3 |